Hourly Weather Bolshie Stariki

Today, 25 July, Sunday

Time Temperature Precipitation Wind Pressure Humidity
00:00 +14°C° 0 mm 1 mps 754 mmHg 70%
01:00 +13°C° 0 mm 1 mps 754 mmHg 73%
02:00 +13°C° 0 mm 1 mps 754 mmHg 74%
03:00 +13°C° 0 mm 1 mps 754 mmHg 75%
04:00 +13°C° 0 mm 1 mps 754 mmHg 75%
05:00 +13°C° 0 mm 1 mps 754 mmHg 76%
06:00 +16°C° 0 mm 1 mps 754 mmHg 68%
07:00 +19°C° 0 mm 1 mps 755 mmHg 61%
08:00 +21°C° 0 mm 1 mps 755 mmHg 53%
09:00 +23°C° 0 mm 1 mps 755 mmHg 48%
10:00 +24°C° 0 mm 1 mps 755 mmHg 43%
11:00 +26°C° 0 mm 1 mps 755 mmHg 38%
12:00 +27°C° 0 mm 1 mps 755 mmHg 37%
13:00 +27°C° 0 mm 1 mps 755 mmHg 36%
14:00 +28°C° 0 mm 1 mps 755 mmHg 34%
15:00 +27°C° 0 mm 1 mps 755 mmHg 35%
16:00 +27°C° 0 mm 1 mps 755 mmHg 36%
17:00 +27°C° 0 mm 1 mps 755 mmHg 37%
18:00 +25°C° 0 mm 1 mps 755 mmHg 45%
19:00 +23°C° 0 mm 1 mps 755 mmHg 53%
20:00 +21°C° 0 mm 1 mps 755 mmHg 61%
21:00 +20°C° 0 mm 1 mps 755 mmHg 63%
22:00 +19°C° 0 mm 1 mps 755 mmHg 66%
23:00 +18°C° 0 mm 1 mps 756 mmHg 68%

Tomorrow, 26 July, Monday

Time Temperature Precipitation Wind Pressure Humidity
00:00 +18°C° 0 mm 1 mps 756 mmHg 69%
01:00 +16°C° 0 mm 1 mps 756 mmHg 71%
02:00 +16°C° 0 mm 1 mps 756 mmHg 72%
03:00 +16°C° 0 mm 1 mps 756 mmHg 73%
04:00 +16°C° 0 mm 1 mps 756 mmHg 73%
05:00 +16°C° 0 mm 1 mps 756 mmHg 74%
06:00 +19°C° 0 mm 1 mps 756 mmHg 66%
07:00 +22°C° 0 mm 1 mps 756 mmHg 58%
08:00 +24°C° 0 mm 1 mps 757 mmHg 50%
09:00 +26°C° 0 mm 1 mps 757 mmHg 45%
10:00 +27°C° 0 mm 1 mps 757 mmHg 40%
11:00 +29°C° 0 mm 1 mps 757 mmHg 36%
12:00 +29°C° 0 mm 1 mps 756 mmHg 35%
13:00 +30°C° 0 mm 1 mps 756 mmHg 33%
14:00 +31°C° 0 mm 1 mps 756 mmHg 32%
15:00 +30°C° 0 mm 1 mps 756 mmHg 33%
16:00 +30°C° 0 mm 1 mps 756 mmHg 35%
17:00 +30°C° 0 mm 1 mps 756 mmHg 36%
18:00 +28°C° 0 mm 2 mps 756 mmHg 44%
19:00 +26°C° 0 mm 2 mps 756 mmHg 51%
20:00 +24°C° 0 mm 2 mps 756 mmHg 58%
21:00 +23°C° 0 mm 2 mps 756 mmHg 60%
22:00 +21°C° 0 mm 2 mps 756 mmHg 62%
23:00 +20°C° 0 mm 2 mps 756 mmHg 64%

Day after tomorrow, 27 July, Tuesday

Time Temperature Precipitation Wind Pressure Humidity
00:00 +20°C° 0 mm 2 mps 756 mmHg 66%
01:00 +20°C° 0 mm 1 mps 756 mmHg 68%
02:00 +20°C° 0 mm 1 mps 756 mmHg 70%
03:00 +20°C° 0 mm 1 mps 756 mmHg 71%
04:00 +20°C° 0 mm 1 mps 756 mmHg 71%
05:00 +20°C° 0 mm 1 mps 756 mmHg 72%
06:00 +21°C° 0 mm 1 mps 756 mmHg 71%
07:00 +22°C° 0 mm 1 mps 756 mmHg 69%
08:00 +23°C° 0 mm 1 mps 756 mmHg 67%
09:00 +25°C° 0 mm 1 mps 755 mmHg 59%
10:00 +27°C° 0 mm 2 mps 755 mmHg 51%
11:00 +30°C° 0 mm 2 mps 755 mmHg 42%
12:00 +30°C° 0 mm 2 mps 755 mmHg 41%
13:00 +30°C° 0 mm 2 mps 754 mmHg 40%
14:00 +31°C° 0 mm 2 mps 754 mmHg 39%
15:00 +30°C° 0 mm 2 mps 754 mmHg 41%
16:00 +30°C° 0 mm 3 mps 753 mmHg 43%
17:00 +29°C° 0 mm 3 mps 753 mmHg 45%
18:00 +27°C° 0 mm 2 mps 753 mmHg 51%
19:00 +25°C° 0 mm 2 mps 752 mmHg 56%
20:00 +23°C° 0 mm 2 mps 752 mmHg 62%
21:00 +23°C° 0 mm 2 mps 752 mmHg 64%
22:00 +21°C° 0 mm 2 mps 752 mmHg 67%
23:00 +20°C° 0 mm 2 mps 752 mmHg 69%

28 July, Wednesday

Time Temperature Precipitation Wind Pressure Humidity
00:00 +20°C° 0.6 mm 2 mps 752 mmHg 77%
01:00 +19°C° 0.6 mm 3 mps 751 mmHg 84%
02:00 +18°C° 0.6 mm 3 mps 751 mmHg 92%
03:00 +19°C° 0.8 mm 3 mps 750 mmHg 93%
04:00 +19°C° 0.8 mm 3 mps 750 mmHg 94%
05:00 +19°C° 0.8 mm 3 mps 749 mmHg 96%
06:00 +19°C° 0.7 mm 3 mps 749 mmHg 96%
07:00 +19°C° 0.7 mm 3 mps 748 mmHg 96%
08:00 +19°C° 0.7 mm 3 mps 748 mmHg 97%
09:00 +19°C° 1.6 mm 3 mps 748 mmHg 97%
10:00 +19°C° 1.6 mm 3 mps 747 mmHg 97%
11:00 +19°C° 1.6 mm 2 mps 747 mmHg 97%
12:00 +19°C° 1 mm 2 mps 747 mmHg 97%
13:00 +19°C° 1 mm 2 mps 747 mmHg 97%
14:00 +21°C° 1 mm 1 mps 746 mmHg 97%
15:00 +20°C° 0.5 mm 2 mps 746 mmHg 95%
16:00 +21°C° 0.5 mm 2 mps 746 mmHg 94%
17:00 +23°C° 0.5 mm 2 mps 746 mmHg 92%
18:00 +21°C° 0.7 mm 3 mps 746 mmHg 93%
19:00 +20°C° 0.7 mm 3 mps 746 mmHg 95%
20:00 +20°C° 0.7 mm 3 mps 746 mmHg 96%
21:00 +20°C° 0.2 mm 3 mps 746 mmHg 97%
22:00 +19°C° 0.2 mm 3 mps 746 mmHg 97%
23:00 +19°C° 0.2 mm 3 mps 746 mmHg 97%

29 July, Thursday

Time Temperature Precipitation Wind Pressure Humidity
00:00 +19°C° 0 mm 3 mps 746 mmHg 97%
01:00 +19°C° 0 mm 3 mps 746 mmHg 97%
02:00 +18°C° 0 mm 3 mps 746 mmHg 97%
03:00 +18°C° 0 mm 3 mps 746 mmHg 97%
04:00 +18°C° 0 mm 3 mps 746 mmHg 97%
05:00 +18°C° 0 mm 3 mps 746 mmHg 97%
06:00 +19°C° 0 mm 4 mps 747 mmHg 94%
07:00 +19°C° 0 mm 4 mps 747 mmHg 91%
08:00 +20°C° 0 mm 4 mps 747 mmHg 88%
09:00 +22°C° 0 mm 4 mps 747 mmHg 77%
10:00 +23°C° 0 mm 4 mps 747 mmHg 66%
11:00 +26°C° 0 mm 4 mps 747 mmHg 56%
12:00 +27°C° 0 mm 4 mps 747 mmHg 51%
13:00 +28°C° 0 mm 4 mps 747 mmHg 47%
14:00 +29°C° 0 mm 4 mps 747 mmHg 42%
15:00 +27°C° 0 mm 4 mps 747 mmHg 48%
16:00 +26°C° 0 mm 4 mps 747 mmHg 54%
17:00 +25°C° 0 mm 3 mps 747 mmHg 60%
18:00 +24°C° 0 mm 3 mps 748 mmHg 65%
19:00 +23°C° 0 mm 2 mps 748 mmHg 70%
20:00 +21°C° 0 mm 2 mps 748 mmHg 74%
21:00 +20°C° 0 mm 2 mps 748 mmHg 77%
22:00 +20°C° 0 mm 2 mps 748 mmHg 79%
23:00 +19°C° 0 mm 2 mps 748 mmHg 81%

30 July, Friday

Time Temperature Precipitation Wind Pressure Humidity
00:00 +19°C° 0 mm 2 mps 748 mmHg 82%
01:00 +18°C° 0 mm 2 mps 748 mmHg 83%
02:00 +18°C° 0 mm 2 mps 748 mmHg 84%
03:00 +19°C° 0 mm 1 mps 748 mmHg 84%
04:00 +19°C° 0 mm 1 mps 749 mmHg 83%
05:00 +20°C° 0 mm 1 mps 749 mmHg 82%
06:00 +20°C° 0 mm 2 mps 749 mmHg 77%
07:00 +21°C° 0 mm 2 mps 749 mmHg 72%
08:00 +24°C° 0 mm 2 mps 749 mmHg 67%
09:00 +25°C° 0 mm 3 mps 749 mmHg 60%
10:00 +26°C° 0 mm 3 mps 749 mmHg 53%
11:00 +28°C° 0 mm 3 mps 748 mmHg 46%
12:00 +28°C° 0 mm 3 mps 748 mmHg 44%
13:00 +29°C° 0 mm 3 mps 748 mmHg 42%
14:00 +29°C° 0 mm 4 mps 748 mmHg 41%
15:00 +28°C° 0 mm 4 mps 747 mmHg 47%
16:00 +27°C° 0 mm 3 mps 747 mmHg 54%
17:00 +25°C° 0 mm 3 mps 747 mmHg 61%
18:00 +24°C° 0.2 mm 3 mps 747 mmHg 69%
19:00 +22°C° 0.2 mm 3 mps 747 mmHg 78%
20:00 +20°C° 0.2 mm 3 mps 747 mmHg 86%
21:00 +19°C° 0 mm 2 mps 747 mmHg 90%
22:00 +19°C° 0 mm 2 mps 747 mmHg 94%
23:00 +18°C° 0 mm 2 mps 747 mmHg 97%
Show more

We Need Your Consent

Meteoprog and our Service Providers may store and access personal data such as cookies, device identifiers or other similar technologies on your device and process such data to personalise content and ads, as well as provide social media features and to analyse the traffic.

  • Store and/or access information on your device

    Cookies, device identifiers or other information can be stored or accessed on your device for the purposes indicated above.

  • Personalised ads and content, ad and content measurement, audience insights, and products development

    Ads and content can be personalised based on a profile. More data can be added to better personalise ads and content. Ad and content performance can be measured. Insights about the audience who saw the ads and content can be derived. Such data can be used to develop or improve user’s experience, systems and software.

By clicking ‘I Agree’ you will allow the use of indicated cookies, device identifiers, web beacons or other similar technologies. Your settings can be changed in the browser on your device.

For certain purposes, legitimate interests may be relied on, rather than consent. You can read more about this in our Privacy and Cookie Policy.